Location: Hope
(40.9110°N, 74.9680°W)
Time: 17:01:53
(UTC-04:00)

Envisat - Pass Details

Date: 28 January 2019
Orbit: 764 x 766 km, 98.1° (Epoch: 21 October)

Event Time Altitude Azimuth Distance (km) Brightness Sun altitude
Rises 19:42:30 0° 198° (SSW) 3,218 6.4 -28.5°
Reaches altitude 10° 19:45:12 10° 212° (SSW) 2,297 5.8 -29.0°
Maximum altitude 19:49:17 24° 266° (W) 1,535 5.2 -29.8°
Drops below altitude 10° 19:53:24 10° 320° (NW) 2,310 5.9 -30.5°
Sets 19:56:08 0° 334° (NNW) 3,241 6.6 -31.1°
